TimeCDT,TemperatureF,Dew PointF,Humidity,Sea Level PressureIn,VisibilityMPH,Wind Direction,Wind SpeedMPH,Gust SpeedMPH,PrecipitationIn,Events,Conditions,WindDirDegrees,DateUTC
12:13 AM,41.0,37.4,87,29.88,10.0,WNW,4.6,-,N/A,,Clear,290,2012-10-15 05:13:00
12:15 AM,41.0,37.4,87,29.88,10.0,WNW,4.6,-,N/A,,Clear,290,2012-10-15 05:15:00
12:33 AM,42.8,37.4,81,29.88,10.0,WNW,5.8,-,N/A,,Clear,290,2012-10-15 05:33:00
12:35 AM,41.0,37.4,87,29.89,10.0,WNW,6.9,-,N/A,,Clear,290,2012-10-15 05:35:00
12:53 AM,42.8,39.2,87,29.89,10.0,WNW,5.8,-,N/A,,Clear,300,2012-10-15 05:53:00
12:55 AM,41.0,37.4,87,29.89,10.0,WNW,5.8,-,N/A,,Clear,300,2012-10-15 05:55:00
1:13 AM,42.8,39.2,87,29.89,10.0,WNW,4.6,-,N/A,,Scattered Clouds,300,2012-10-15 06:13:00
1:15 AM,42.8,39.2,87,29.89,10.0,WNW,4.6,-,N/A,,Scattered Clouds,300,2012-10-15 06:15:00
1:33 AM,44.6,39.2,81,29.89,10.0,WNW,4.6,-,N/A,,Scattered Clouds,300,2012-10-15 06:33:00
1:35 AM,42.8,39.2,87,29.89,10.0,WNW,4.6,-,N/A,,Clear,300,2012-10-15 06:35:00
1:53 AM,44.6,39.2,81,29.89,10.0,WNW,4.6,-,N/A,,Clear,290,2012-10-15 06:53:00
1:55 AM,42.8,39.2,87,29.89,10.0,WNW,4.6,-,N/A,,Clear,290,2012-10-15 06:55:00
2:13 AM,42.8,39.2,87,29.89,10.0,WNW,4.6,-,N/A,,Clear,290,2012-10-15 07:13:00
2:15 AM,42.8,37.4,81,29.89,10.0,WNW,4.6,-,N/A,,Clear,290,2012-10-15 07:15:00
2:33 AM,42.8,39.2,87,29.89,10.0,Calm,Calm,-,N/A,,Clear,0,2012-10-15 07:33:00
2:35 AM,42.8,37.4,81,29.89,10.0,Calm,Calm,-,N/A,,Clear,0,2012-10-15 07:35:00
2:53 AM,41.0,37.4,87,29.90,10.0,Calm,Calm,-,N/A,,Clear,0,2012-10-15 07:53:00
2:55 AM,41.0,37.4,87,29.90,10.0,WNW,3.5,-,N/A,,Clear,290,2012-10-15 07:55:00
3:13 AM,39.2,37.4,93,29.89,10.0,West,3.5,-,N/A,,Clear,270,2012-10-15 08:13:00
3:15 AM,39.2,37.4,93,29.89,10.0,West,3.5,-,N/A,,Clear,270,2012-10-15 08:15:00
3:33 AM,41.0,37.4,87,29.90,10.0,West,5.8,-,N/A,,Clear,270,2012-10-15 08:33:00
3:35 AM,41.0,37.4,87,29.90,10.0,West,5.8,-,N/A,,Clear,270,2012-10-15 08:35:00
3:54 AM,39.2,37.4,93,29.90,7.0,West,6.9,-,N/A,,Clear,270,2012-10-15 08:54:00
3:55 AM,39.2,37.4,93,29.90,7.0,West,6.9,-,N/A,,Clear,270,2012-10-15 08:55:00
4:13 AM,39.2,37.4,93,29.91,10.0,West,8.1,-,N/A,,Clear,270,2012-10-15 09:13:00
4:15 AM,39.2,37.4,93,29.91,10.0,West,8.1,-,N/A,,Clear,270,2012-10-15 09:15:00
4:33 AM,39.2,37.4,93,29.92,10.0,West,6.9,-,N/A,,Clear,280,2012-10-15 09:33:00
4:35 AM,39.2,37.4,93,29.92,10.0,West,6.9,-,N/A,,Clear,280,2012-10-15 09:35:00
4:54 AM,39.2,37.4,93,29.91,10.0,WNW,4.6,-,N/A,,Clear,290,2012-10-15 09:54:00
4:55 AM,39.2,35.6,87,29.91,10.0,WNW,4.6,-,N/A,,Clear,290,2012-10-15 09:55:00
5:13 AM,37.4,35.6,93,29.92,10.0,West,5.8,-,N/A,,Clear,280,2012-10-15 10:13:00
5:15 AM,37.4,33.8,87,29.92,10.0,West,5.8,-,N/A,,Clear,280,2012-10-15 10:15:00
5:34 AM,37.4,35.6,93,29.92,10.0,West,5.8,-,N/A,,Clear,270,2012-10-15 10:34:00
5:35 AM,37.4,33.8,87,29.92,10.0,West,5.8,-,N/A,,Clear,270,2012-10-15 10:35:00
5:55 AM,35.6,33.8,93,29.92,10.0,West,5.8,-,N/A,,Clear,280,2012-10-15 10:55:00
6:13 AM,35.6,33.8,93,29.92,10.0,West,5.8,-,N/A,,Clear,280,2012-10-15 11:13:00
6:15 AM,35.6,33.8,93,29.92,10.0,West,5.8,-,N/A,,Clear,280,2012-10-15 11:15:00
6:33 AM,35.6,33.8,93,29.93,10.0,WNW,5.8,-,N/A,,Clear,290,2012-10-15 11:33:00
6:35 AM,35.6,33.8,93,29.93,10.0,WNW,5.8,-,N/A,,Clear,290,2012-10-15 11:35:00
7:33 AM,35.6,33.8,93,29.94,10.0,WNW,4.6,-,N/A,,Clear,290,2012-10-15 12:33:00
7:35 AM,35.6,32.0,87,29.94,10.0,West,4.6,-,N/A,,Clear,280,2012-10-15 12:35:00
7:53 AM,35.6,33.8,93,29.94,10.0,West,3.5,-,N/A,,Clear,270,2012-10-15 12:53:00
7:55 AM,35.6,32.0,87,29.94,10.0,West,3.5,-,N/A,,Clear,280,2012-10-15 12:55:00
8:33 AM,39.2,35.6,87,29.96,10.0,WNW,4.6,-,N/A,,Clear,290,2012-10-15 13:33:00
8:35 AM,37.4,33.8,87,29.96,10.0,West,4.6,-,N/A,,Clear,280,2012-10-15 13:35:00
8:53 AM,39.2,35.6,87,29.96,10.0,NW,4.6,-,N/A,,Clear,310,2012-10-15 13:53:00
8:55 AM,39.2,35.6,87,29.96,10.0,NW,4.6,-,N/A,,Clear,310,2012-10-15 13:55:00
9:14 AM,42.8,37.4,81,29.96,10.0,NW,4.6,-,N/A,,Clear,320,2012-10-15 14:14:00
9:15 AM,41.0,35.6,81,29.96,10.0,NW,4.6,-,N/A,,Clear,320,2012-10-15 14:15:00
9:33 AM,44.6,39.2,81,29.97,10.0,NW,4.6,-,N/A,,Clear,320,2012-10-15 14:33:00
9:53 AM,44.6,39.2,81,29.98,10.0,West,4.6,-,N/A,,Clear,280,2012-10-15 14:53:00
9:55 AM,44.6,37.4,76,29.98,10.0,WNW,3.5,-,N/A,,Clear,290,2012-10-15 14:55:00
10:14 AM,46.4,39.2,76,29.97,7.0,Calm,Calm,-,N/A,,Clear,0,2012-10-15 15:14:00
10:15 AM,46.4,39.2,76,29.97,7.0,Calm,Calm,-,N/A,,Clear,0,2012-10-15 15:15:00
10:33 AM,48.2,39.2,71,29.98,10.0,West,3.5,-,N/A,,Clear,270,2012-10-15 15:33:00
10:35 AM,48.2,39.2,71,29.98,10.0,West,3.5,-,N/A,,Clear,280,2012-10-15 15:35:00
10:53 AM,50.0,39.2,66,29.99,10.0,WNW,3.5,-,N/A,,Clear,290,2012-10-15 15:53:00
10:55 AM,50.0,39.2,66,29.99,10.0,Calm,Calm,-,N/A,,Clear,0,2012-10-15 15:55:00
11:33 AM,53.6,41.0,62,29.99,10.0,West,4.6,-,N/A,,Clear,270,2012-10-15 16:33:00
11:35 AM,53.6,41.0,62,29.99,10.0,West,3.5,-,N/A,,Clear,270,2012-10-15 16:35:00
11:54 AM,55.4,39.2,54,29.99,10.0,West,6.9,-,N/A,,Clear,270,2012-10-15 16:54:00
11:55 AM,53.6,39.2,58,29.99,10.0,West,5.8,-,N/A,,Clear,270,2012-10-15 16:55:00
12:13 PM,55.4,39.2,54,29.98,7.0,WNW,5.8,-,N/A,,Clear,300,2012-10-15 17:13:00
12:15 PM,55.4,37.4,51,29.98,7.0,West,6.9,-,N/A,,Clear,280,2012-10-15 17:15:00
12:33 PM,57.2,39.2,51,29.97,10.0,NW,3.5,-,N/A,,Clear,310,2012-10-15 17:33:00
12:35 PM,55.4,37.4,51,29.97,10.0,NW,4.6,-,N/A,,Clear,320,2012-10-15 17:35:00
1:13 PM,57.2,37.4,48,29.96,10.0,NW,3.5,-,N/A,,Clear,320,2012-10-15 18:13:00
1:15 PM,57.2,35.6,44,29.96,10.0,NW,3.5,-,N/A,,Clear,320,2012-10-15 18:15:00
1:33 PM,57.2,37.4,48,29.96,10.0,NW,5.8,-,N/A,,Clear,310,2012-10-15 18:33:00
1:35 PM,57.2,35.6,44,29.95,10.0,WNW,4.6,-,N/A,,Clear,300,2012-10-15 18:35:00
1:53 PM,59.0,37.4,45,29.95,10.0,WNW,6.9,-,N/A,,Clear,290,2012-10-15 18:53:00
1:55 PM,59.0,35.6,42,29.95,10.0,West,3.5,-,N/A,,Clear,280,2012-10-15 18:55:00
2:13 PM,59.0,35.6,42,29.94,5.0,Calm,Calm,-,N/A,,Haze,0,2012-10-15 19:13:00
2:15 PM,59.0,33.8,39,29.94,5.0,Calm,Calm,-,N/A,,Haze,0,2012-10-15 19:15:00
2:33 PM,60.8,35.6,39,29.94,7.0,West,3.5,-,N/A,,Clear,270,2012-10-15 19:33:00
2:35 PM,59.0,35.6,42,29.94,7.0,Calm,Calm,-,N/A,,Clear,0,2012-10-15 19:35:00
2:53 PM,60.8,35.6,39,29.93,10.0,Calm,Calm,-,N/A,,Clear,0,2012-10-15 19:53:00
2:55 PM,59.0,33.8,39,29.93,10.0,Calm,Calm,-,N/A,,Clear,0,2012-10-15 19:55:00
3:13 PM,60.8,35.6,39,29.92,10.0,Calm,Calm,-,N/A,,Clear,0,2012-10-15 20:13:00
3:15 PM,59.0,33.8,39,29.92,10.0,Calm,Calm,-,N/A,,Clear,0,2012-10-15 20:15:00
3:33 PM,60.8,35.6,39,29.92,10.0,WSW,3.5,-,N/A,,Clear,240,2012-10-15 20:33:00
3:35 PM,60.8,33.8,36,29.92,10.0,Calm,Calm,-,N/A,,Clear,0,2012-10-15 20:35:00
3:53 PM,60.8,35.6,39,29.92,10.0,Calm,Calm,-,N/A,,Clear,0,2012-10-15 20:53:00
3:55 PM,60.8,33.8,36,29.92,10.0,Calm,Calm,-,N/A,,Clear,0,2012-10-15 20:55:00
4:13 PM,59.0,33.8,39,29.91,10.0,Calm,Calm,-,N/A,,Clear,0,2012-10-15 21:13:00
4:15 PM,59.0,33.8,39,29.91,10.0,Calm,Calm,-,N/A,,Clear,0,2012-10-15 21:15:00
4:33 PM,60.8,35.6,39,29.92,10.0,Calm,Calm,-,N/A,,Clear,0,2012-10-15 21:33:00
4:35 PM,59.0,35.6,42,29.92,10.0,South,3.5,-,N/A,,Clear,190,2012-10-15 21:35:00
4:53 PM,60.8,35.6,39,29.91,10.0,Calm,Calm,-,N/A,,Clear,0,2012-10-15 21:53:00
4:55 PM,59.0,35.6,42,29.91,10.0,Calm,Calm,-,N/A,,Clear,0,2012-10-15 21:55:00
5:13 PM,60.8,35.6,39,29.91,10.0,Calm,Calm,-,N/A,,Clear,0,2012-10-15 22:13:00
5:15 PM,59.0,33.8,39,29.91,10.0,Calm,Calm,-,N/A,,Clear,0,2012-10-15 22:15:00
5:33 PM,60.8,35.6,39,29.91,10.0,Calm,Calm,-,N/A,,Clear,0,2012-10-15 22:33:00
5:35 PM,59.0,33.8,39,29.91,10.0,Calm,Calm,-,N/A,,Clear,0,2012-10-15 22:35:00
5:53 PM,57.2,37.4,48,29.90,10.0,Calm,Calm,-,N/A,,Clear,0,2012-10-15 22:53:00
6:13 PM,53.6,39.2,58,29.90,10.0,Calm,Calm,-,N/A,,Clear,0,2012-10-15 23:13:00
6:15 PM,51.8,37.4,58,29.90,10.0,Calm,Calm,-,N/A,,Clear,0,2012-10-15 23:15:00
6:33 PM,51.8,37.4,58,29.90,10.0,Calm,Calm,-,N/A,,Clear,0,2012-10-15 23:33:00
6:35 PM,50.0,37.4,62,29.90,10.0,Calm,Calm,-,N/A,,Clear,0,2012-10-15 23:35:00
6:53 PM,48.2,37.4,66,29.90,10.0,Calm,Calm,-,N/A,,Clear,0,2012-10-15 23:53:00
6:55 PM,46.4,37.4,71,29.90,10.0,Calm,Calm,-,N/A,,Clear,0,2012-10-15 23:55:00
7:13 PM,50.0,39.2,66,29.91,10.0,SSE,4.6,-,N/A,,Clear,150,2012-10-16 00:13:00
7:15 PM,50.0,37.4,62,29.90,10.0,SSE,4.6,-,N/A,,Clear,150,2012-10-16 00:15:00
7:33 PM,50.0,37.4,62,29.90,10.0,SE,5.8,-,N/A,,Clear,140,2012-10-16 00:33:00
7:35 PM,50.0,37.4,62,29.90,10.0,SE,5.8,-,N/A,,Clear,140,2012-10-16 00:35:00
7:53 PM,50.0,39.2,66,29.90,10.0,SSE,5.8,-,N/A,,Clear,150,2012-10-16 00:53:00
7:55 PM,50.0,37.4,62,29.90,10.0,SSE,4.6,-,N/A,,Clear,150,2012-10-16 00:55:00
8:13 PM,48.2,39.2,71,29.90,10.0,SE,4.6,-,N/A,,Clear,140,2012-10-16 01:13:00
8:15 PM,48.2,37.4,66,29.90,10.0,SE,5.8,-,N/A,,Clear,130,2012-10-16 01:15:00
8:33 PM,48.2,39.2,71,29.90,10.0,SE,5.8,-,N/A,,Clear,140,2012-10-16 01:33:00
8:35 PM,46.4,37.4,71,29.90,10.0,SE,4.6,-,N/A,,Clear,140,2012-10-16 01:35:00
8:53 PM,46.4,39.2,76,29.90,10.0,SE,5.8,-,N/A,,Clear,140,2012-10-16 01:53:00
8:55 PM,46.4,37.4,71,29.90,10.0,SSE,4.6,-,N/A,,Clear,150,2012-10-16 01:55:00
9:13 PM,46.4,39.2,76,29.89,10.0,SE,5.8,-,N/A,,Clear,140,2012-10-16 02:13:00
9:15 PM,46.4,37.4,71,29.89,10.0,SSE,5.8,-,N/A,,Clear,150,2012-10-16 02:15:00
9:33 PM,48.2,39.2,71,29.89,10.0,SE,4.6,-,N/A,,Clear,140,2012-10-16 02:33:00
9:35 PM,46.4,39.2,76,29.89,10.0,SE,3.5,-,N/A,,Clear,140,2012-10-16 02:35:00
9:53 PM,48.2,39.2,71,29.89,10.0,SE,4.6,-,N/A,,Clear,140,2012-10-16 02:53:00
9:55 PM,46.4,39.2,76,29.89,10.0,SE,4.6,-,N/A,,Clear,140,2012-10-16 02:55:00
10:13 PM,48.2,39.2,71,29.89,10.0,SE,5.8,-,N/A,,Clear,140,2012-10-16 03:13:00
10:15 PM,46.4,39.2,76,29.89,10.0,SE,4.6,-,N/A,,Clear,140,2012-10-16 03:15:00
10:33 PM,48.2,39.2,71,29.88,10.0,SE,4.6,-,N/A,,Clear,140,2012-10-16 03:33:00
10:35 PM,46.4,39.2,76,29.88,10.0,SE,4.6,-,N/A,,Clear,140,2012-10-16 03:35:00
10:53 PM,48.2,39.2,71,29.88,10.0,SE,5.8,-,N/A,,Clear,140,2012-10-16 03:53:00
10:55 PM,46.4,39.2,76,29.88,10.0,SE,5.8,-,N/A,,Clear,140,2012-10-16 03:55:00
11:13 PM,48.2,39.2,71,29.87,10.0,SE,5.8,-,N/A,,Clear,140,2012-10-16 04:13:00
11:15 PM,46.4,39.2,76,29.87,10.0,SSE,6.9,-,N/A,,Clear,150,2012-10-16 04:15:00
11:33 PM,48.2,39.2,71,29.88,10.0,SSE,6.9,-,N/A,,Clear,150,2012-10-16 04:33:00
11:35 PM,48.2,39.2,71,29.88,10.0,SSE,6.9,-,N/A,,Clear,150,2012-10-16 04:35:00
11:53 PM,46.4,39.2,76,29.87,10.0,SSE,5.8,-,N/A,,Clear,150,2012-10-16 04:53:00